EWG36C LGSA-EDDL

Flight info

Callsign EWG36C
Flight time N/A
Altitude 36000
Route SOKRI UY151 DDM DCT XANIS DCT DIMIS DCT OVVER DCT RODON DCT VAKSU DCT UNIPA DCT DOL DCT SIMBA DCT KEMES DCT TESDU DCT AMETU T852 TINSA T854 DOMUX
Aircraft A321/M-SDE2E3FGIJ1LORWXY/HB1

Departure

Time 2026-05-05 15:39
Airport Chania International Airport (LGSA)

Arrival

Time N/A
Airport Düsseldorf Airport (EDDL)
Time Latitude Longitude Altitude Speed Heading
2026-05-05 14:56 35.53863 24.14112 498 ft 0 kts 21°
2026-05-05 15:24 35.53852 24.14106 488 ft 3 kts 21°
2026-05-05 15:25 35.53834 24.14098 495 ft 3 kts 21°
2026-05-05 15:25 35.53816 24.14090 489 ft 3 kts 30°
2026-05-05 15:25 35.53801 24.14074 493 ft 3 kts 62°
2026-05-05 15:25 35.53796 24.14052 489 ft 3 kts 83°
2026-05-05 15:26 35.53794 24.14030 488 ft 3 kts 101°
2026-05-05 15:26 35.53800 24.14009 493 ft 3 kts 115°
2026-05-05 15:26 35.53807 24.13992 493 ft 0 kts 112°
2026-05-05 15:26 35.53810 24.13982 489 ft 0 kts 109°
2026-05-05 15:29 35.53808 24.13989 492 ft 2 kts 111°
2026-05-05 15:29 35.53796 24.14006 492 ft 4 kts 143°
2026-05-05 15:29 35.53765 24.14005 494 ft 5 kts 195°
2026-05-05 15:30 35.53730 24.13987 495 ft 6 kts 202°
2026-05-05 15:30 35.53690 24.13986 489 ft 6 kts 145°
2026-05-05 15:30 35.53666 24.14035 493 ft 8 kts 114°
2026-05-05 15:30 35.53644 24.14106 494 ft 10 kts 111°
2026-05-05 15:31 35.53618 24.14189 495 ft 11 kts 111°
2026-05-05 15:31 35.53588 24.14280 489 ft 12 kts 112°
2026-05-05 15:31 35.53555 24.14380 496 ft 13 kts 111°
2026-05-05 15:31 35.53519 24.14491 490 ft 15 kts 112°
2026-05-05 15:32 35.53480 24.14611 495 ft 16 kts 112°
2026-05-05 15:32 35.53438 24.14740 497 ft 17 kts 111°
2026-05-05 15:32 35.53394 24.14878 495 ft 18 kts 111°
2026-05-05 15:32 35.53349 24.15021 492 ft 19 kts 116°
2026-05-05 15:33 35.53298 24.15172 490 ft 19 kts 112°
2026-05-05 15:33 35.53247 24.15330 488 ft 20 kts 110°
2026-05-05 15:33 35.53192 24.15492 493 ft 21 kts 110°
2026-05-05 15:33 35.53140 24.15660 494 ft 21 kts 110°
2026-05-05 15:34 35.53086 24.15832 490 ft 22 kts 112°
2026-05-05 15:34 35.53029 24.16006 489 ft 22 kts 114°
2026-05-05 15:34 35.52969 24.16184 491 ft 23 kts 112°
2026-05-05 15:34 35.52937 24.16282 495 ft 10 kts 112°
2026-05-05 15:35 35.52909 24.16365 494 ft 12 kts 112°
2026-05-05 15:35 35.52873 24.16479 493 ft 17 kts 111°
2026-05-05 15:35 35.52828 24.16617 490 ft 18 kts 112°
2026-05-05 15:35 35.52780 24.16762 495 ft 19 kts 112°
2026-05-05 15:36 35.52751 24.16855 493 ft 15 kts 111°
2026-05-05 15:36 35.52687 24.16874 498 ft 11 kts 197°
2026-05-05 15:36 35.52638 24.16852 499 ft 7 kts 202°
2026-05-05 15:36 35.52590 24.16824 494 ft 8 kts 221°
2026-05-05 15:37 35.52588 24.16787 493 ft 1 kts 289°
2026-05-05 15:37 35.52592 24.16775 491 ft 2 kts 290°
2026-05-05 15:37 35.52592 24.16774 491 ft 0 kts 290°
2026-05-05 15:37 35.52593 24.16771 498 ft 1 kts 290°
2026-05-05 15:38 35.52622 24.16678 495 ft 38 kts 291°
2026-05-05 15:38 35.52815 24.16090 492 ft 108 kts 292°
2026-05-05 15:38 35.53161 24.15024 489 ft 161 kts 292°
2026-05-05 15:38 35.53596 24.13698 1074 ft 161 kts 290°
2026-05-05 15:39 35.54009 24.12425 1844 ft 158 kts 292°
2026-05-05 15:39 35.54422 24.11171 2427 ft 162 kts 293°
2026-05-05 15:39 35.54871 24.09824 2817 ft 178 kts 293°
2026-05-05 15:39 35.55442 24.08413 3189 ft 192 kts 309°
2026-05-05 15:40 35.56566 24.07469 3556 ft 205 kts 343°
2026-05-05 15:40 35.58007 24.07430 3931 ft 217 kts
2026-05-05 15:40 35.59527 24.07671 4468 ft 222 kts
2026-05-05 15:40 35.61068 24.07901 5090 ft 223 kts
2026-05-05 15:41 35.62592 24.07589 5737 ft 223 kts 339°
2026-05-05 15:41 35.63911 24.06557 6321 ft 229 kts 324°
2026-05-05 15:41 35.65222 24.05318 6642 ft 246 kts 324°
2026-05-05 15:41 35.66610 24.03999 7008 ft 263 kts 324°
2026-05-05 15:42 35.68092 24.02585 7517 ft 272 kts 324°
2026-05-05 15:42 35.69598 24.01147 8251 ft 274 kts 324°
2026-05-05 15:42 35.71110 23.99703 9001 ft 275 kts 324°
2026-05-05 15:42 35.72629 23.98253 9744 ft 277 kts 324°
2026-05-05 15:43 35.74162 23.96791 10426 ft 279 kts 324°
2026-05-05 15:43 35.75707 23.95319 10982 ft 285 kts 323°
2026-05-05 15:43 35.77323 23.93784 11270 ft 301 kts 323°
2026-05-05 15:43 35.79022 23.92165 11535 ft 316 kts 323°
2026-05-05 15:44 35.80784 23.90483 11988 ft 323 kts 323°